Regional Weather Roundup
Issued by NWS

Home | Current Version | Previous Version | Text Only | Print | Product List | Glossary On
Versions: 1 2 3 4 5 6 7 8 9 10 11 12 13 14 15 16 17 18 19 20 21 22 23 24 25 26 27 28 29 30 31 32 33 34 35 36 37 38 39 40 41 42 43 44 45 46 47 48 49 50
000
ASUS44 KBMX 281210
RWRAL

ALABAMA REGIONAL WEATHER ROUNDUP
NATIONAL WEATHER SERVICE BIRMINGHAM AL
600 AM CST SAT FEB 28 2015

NOTE: "FAIR" INDICATES FEW OR NO CLOUDS BELOW 12,000 FEET
WITH NO SIGNIFICANT WEATHER AND/OR OBSTRUCTIONS TO VISIBILITY.

THE REMARK "TC" DENOTES TEMPERATURE IN DEGREES CELSIUS.

ALZ001>011-014-016>018-020-281300-
NORTH ALABAMA

CITY           SKY/WX    TMP DP  RH WIND       PRES   REMARKS
MUSCLE SHOALS  CLOUDY    29  13  51 NE5       30.54R WCI  24
6HR MIN TEMP:  29; 6HR MAX TEMP:  30;

HUNTSVILLE     CLOUDY    31  19  61 NE6       30.51R WCI  25
6HR MIN TEMP:  30; 6HR MAX TEMP:  31;

DECATUR        CLOUDY    28  18  66 NE8       30.53R WCI  20
6HR MIN TEMP:  28; 6HR MAX TEMP:  29;

HALEYVILLE       N/A     27  16  63 CALM      30.51R
6HR MIN TEMP:  27; 6HR MAX TEMP:  28;

GADSDEN        CLOUDY    32  18  55 E7        30.50R WCI  26
6HR MIN TEMP:  28; 6HR MAX TEMP:  34;

$$

ALZ012-013-022-023-030>036-040>044-281300-
WEST CENTRAL ALABAMA

CITY           SKY/WX    TMP DP  RH WIND       PRES   REMARKS
TUSCALOOSA     MOCLDY    35  20  54 E5        30.50R WCI  31
6HR MIN TEMP:  33; 6HR MAX TEMP:  35;

$$

ALZ015-024>027-033>036-040>044-281300-
CENTRAL ALABAMA

CITY           SKY/WX    TMP DP  RH WIND       PRES   REMARKS
BIRMINGHAM     MOCLDY    34  17  50 VRB5      30.50R WCI  30
6HR MIN TEMP:  29; 6HR MAX TEMP:  35;

MONTGOMERY     MOCLDY    36  23  59 NE5       30.49R WCI  32
6HR MIN TEMP:  33; 6HR MAX TEMP:  37;

SHELBY CO ARPT CLOUDY    35  20  54 NE5       30.48S WCI  31
6HR MIN TEMP:  34; 6HR MAX TEMP:  36;

MAXWELL AFB    CLOUDY    36  23  58 NE5       30.48R WCI  32
6HR MIN TEMP:  33; 6HR MAX TEMP:  36;

GREENVILLE     FAIR      34  22  61 NE7       30.45R WCI  28
6HR MIN TEMP:  34; 6HR MAX TEMP:  36;

$$

ALZ019-021-028-029-037-038-045>048-281300-
EAST CENTRAL ALABAMA

CITY           SKY/WX    TMP DP  RH WIND       PRES   REMARKS
ANNISTON       MOCLDY    34  20  56 E5        30.52R WCI  30
6HR MIN TEMP:  31; 6HR MAX TEMP:  34;

ALEXANDER CITY CLOUDY    37  19  48 CALM      30.49R
6HR MIN TEMP:  35; 6HR MAX TEMP:  37;

AUBURN         MOCLDY    34  19  55 NE9       30.49R WCI  26
6HR MIN TEMP:  30; 6HR MAX TEMP:  34;

$$

ALZ051>064-281300-
SOUTHWEST ALABAMA

CITY           SKY/WX    TMP DP  RH WIND       PRES   REMARKS
MOBILE         PTCLDY    34  25  69 N12       30.43R WCI  25
6HR MIN TEMP:  34; 6HR MAX TEMP:  39;

BROOKLEY FIELD PTCLDY    40  27  59 N12       30.44R WCI  33
6HR MIN TEMP:  40; 6HR MAX TEMP:  44;

EVERGREEN      PTCLDY    35  25  66 NE6       30.46R WCI  30
6HR MIN TEMP:  34; 6HR MAX TEMP:  38;

$$

ALZ049-050-065>069-281300-
SOUTHEAST ALABAMA

CITY           SKY/WX    TMP DP  RH WIND       PRES   REMARKS
DOTHAN         PTCLDY    40  32  73 N8        30.45R WCI  34
6HR MIN TEMP:  39; 6HR MAX TEMP:  40;

OZARK          CLOUDY    40  29  65 NE10      30.42R WCI  33
6HR MIN TEMP:  38; 6HR MAX TEMP:  42;

TROY           MOCLDY    36  24  62 NE7       30.47R WCI  30
6HR MIN TEMP:  33; 6HR MAX TEMP:  37;

EUFAULA        FAIR      38  27  64 VRB3      30.47R
6HR MIN TEMP:  34; 6HR MAX TEMP:  39;

$$


USA.gov is the U.S. government's official web portal to all federal, state and local government web resources and services.